Date String (YYYY-MM-DD hh:mm:ss) UTC,Instrument flags,absolute air pressure of the measurement (hPa),sample flow rate (lpm),inlet stack bypass flow (lpm),air temperature of the measurement (°C),ambient temperature measured by the external sensor (°C),aerosol sample conditioner tube jacket temperature (°C),OPC LED temperature (°C),internal box temperature (°C),relative humidity of the measurement (%),span deviation,mass concentration of particles derived from Lorenz-Mie calculation of OPC scattering (μg/m³),mass concentration of particles derived from Lorenz-Mie calculation of OPC scattering (μg/m³),mass concentration of particles derived from Lorenz-Mie calculation of OPC scattering (μg/m³)
DateTimeUTC,F1_M11,P_M11,Q1_M11,Q2_M11,T1_M11,T2_M11,T3_M11,T4_M11,T5_M11,U1_M11,ZSPAN_M11,X0_M11,X2_M11,X1_M11
2024-04-07 10:00:00,SystemResetWarning,0814.8,4.99,000.00,018.4,017.0,000.0,027.2,020.0,009.8,0000.0,0009.62,0001.62,0000.71
2024-04-07 10:01:00,SystemResetWarning,0815.1,5.00,000.00,018.4,017.0,000.0,027.2,020.0,009.7,0000.0,0009.38,0001.68,0000.72
2024-04-07 10:02:00,SystemResetWarning,0814.7,5.00,000.00,018.4,016.9,000.0,027.2,020.0,009.6,0000.0,0009.84,0001.69,0000.71
2024-04-07 10:03:00,SystemResetWarning,0814.5,5.02,000.00,018.4,017.7,000.0,027.3,020.4,009.6,0000.0,0009.50,0001.67,0000.70
2024-04-07 10:04:00,SystemResetWarning,0814.2,4.99,000.00,018.7,018.7,000.0,027.4,021.0,009.6,0000.0,0008.71,0001.64,0000.71
2024-04-07 10:05:00,SystemResetWarning,0815.2,4.99,000.00,018.9,018.9,000.0,027.3,021.0,009.5,0000.0,0012.04,0001.80,0000.71
2024-04-07 10:06:00,SystemResetWarning,0815.0,4.99,000.00,018.9,018.7,000.0,027.3,020.8,009.4,0000.0,0011.74,0001.86,0000.72
2024-04-07 10:07:00,SystemResetWarning,0814.9,5.01,000.00,018.8,018.4,000.0,027.3,020.5,009.4,0000.0,0011.70,0001.89,0000.73
2024-04-07 10:08:00,SystemResetWarning,0814.9,5.00,000.00,018.7,018.1,000.0,027.3,020.4,009.4,0000.0,0011.72,0001.83,0000.73
2024-04-07 10:09:00,SystemResetWarning,0814.8,5.00,000.00,018.7,017.9,000.0,027.3,020.2,009.4,0000.0,0012.30,0001.78,0000.72
2024-04-07 10:10:00,SystemResetWarning,0814.9,5.01,000.00,018.6,017.8,000.0,027.2,020.1,009.4,0000.0,0011.88,0001.73,0000.71
2024-04-07 10:11:00,SystemResetWarning,0814.5,4.99,000.00,018.6,017.6,000.0,027.2,020.1,009.4,0000.0,0011.49,0001.73,0000.70
2024-04-07 10:12:00,SystemResetWarning,0814.2,4.99,000.00,018.5,017.4,000.0,027.2,020.0,009.7,0000.0,0011.64,0001.73,0000.70
2024-04-07 10:13:00,SystemResetWarning,0814.1,5.00,000.00,018.5,017.3,000.0,027.2,020.0,009.5,0000.0,0011.74,0001.90,0000.71
2024-04-07 10:14:00,SystemResetWarning,0814.3,5.01,000.00,018.4,017.2,000.0,027.2,020.0,009.6,0000.0,0011.00,0001.90,0000.71
2024-04-07 10:15:00,SystemResetWarning,0814.6,5.00,000.00,018.4,017.1,000.0,027.2,020.0,009.6,0000.0,0010.97,0001.88,0000.71
2024-04-07 10:16:00,SystemResetWarning,0815.0,5.01,000.00,018.5,017.9,000.0,027.3,020.5,009.5,0000.0,0008.12,0001.75,0000.69
2024-04-07 10:17:00,SystemResetWarning,0814.9,4.99,000.00,018.8,018.9,000.0,027.4,021.0,009.4,0000.0,0007.18,0001.66,0000.69
2024-04-07 10:18:00,SystemResetWarning,0815.2,4.99,000.00,018.9,018.8,000.0,027.3,021.0,009.4,0000.0,0007.43,0001.63,0000.68
2024-04-07 10:19:00,SystemResetWarning,0814.8,5.00,000.00,018.9,018.5,000.0,027.3,020.7,009.5,0000.0,0008.27,0001.66,0000.69
2024-04-07 10:20:00,SystemResetWarning,0814.7,5.00,000.00,018.8,018.2,000.0,027.3,020.4,009.7,0000.0,0008.91,0001.73,0000.70
2024-04-07 10:21:00,SystemResetWarning,0814.6,5.00,000.00,018.7,017.9,000.0,027.3,020.3,009.8,0000.0,0009.03,0001.81,0000.71
2024-04-07 10:22:00,SystemResetWarning,0814.8,5.01,000.00,018.7,017.7,000.0,027.2,020.2,009.8,0000.0,0010.10,0001.80,0000.72
2024-04-07 10:23:00,SystemResetWarning,0814.8,5.01,000.00,018.6,017.5,000.0,027.2,020.1,009.9,0000.0,0011.17,0001.78,0000.71
2024-04-07 10:24:00,SystemResetWarning,0814.8,5.00,000.00,018.5,017.3,000.0,027.2,020.0,010.0,0000.0,0010.73,0001.57,0000.69
2024-04-07 10:25:00,SystemResetWarning,0814.7,5.00,000.00,018.5,017.1,000.0,027.2,020.0,010.1,0000.0,0011.32,0001.60,0000.69
2024-04-07 10:26:00,SystemResetWarning,0814.5,4.98,000.00,018.4,016.9,000.0,027.3,020.0,010.2,0000.0,0012.72,0001.87,0000.72
2024-04-07 10:27:00,SystemResetWarning,0814.5,5.00,000.00,018.4,016.9,000.0,027.2,020.0,010.3,0000.0,0013.98,0002.16,0000.75
2024-04-07 10:28:00,SystemResetWarning,0814.4,5.00,000.00,018.4,016.8,000.0,027.2,020.0,010.3,0000.0,0013.72,0002.21,0000.75
2024-04-07 10:29:00,SystemResetWarning,0814.8,5.01,000.00,018.4,017.0,000.0,027.3,020.1,010.1,0000.0,0013.80,0002.28,0000.75
2024-04-07 10:30:00,SystemResetWarning,0814.8,5.01,000.00,018.5,018.0,000.0,027.3,020.5,010.1,0000.0,0013.03,0002.26,0000.74
2024-04-07 10:31:00,SystemResetWarning,0814.9,4.99,000.00,018.8,018.8,000.0,027.4,021.0,009.9,0000.0,0011.64,0002.14,0000.72
2024-04-07 10:32:00,SystemResetWarning,0814.8,4.98,000.00,018.8,018.7,000.0,027.3,020.9,009.9,0000.0,0011.31,0002.04,0000.72
2024-04-07 10:33:00,SystemResetWarning,0814.4,5.00,000.00,018.8,018.4,000.0,027.3,020.6,010.0,0000.0,0010.54,0002.23,0000.73
2024-04-07 10:34:00,SystemResetWarning,0814.5,5.01,000.00,018.7,018.1,000.0,027.3,020.4,010.1,0000.0,0010.90,0002.54,0000.76
2024-04-07 10:35:00,SystemResetWarning,0814.6,5.01,000.00,018.7,017.8,000.0,027.2,020.2,010.1,0000.0,0011.34,0002.59,0000.76
2024-04-07 10:36:00,SystemResetWarning,0814.8,4.99,000.00,018.6,017.6,000.0,027.2,020.0,010.1,0000.0,0010.89,0002.60,0000.76
2024-04-07 10:37:00,SystemResetWarning,0814.5,4.98,000.00,018.5,017.3,000.0,027.2,020.0,010.2,0000.0,0009.75,0002.46,0000.74
2024-04-07 10:38:00,SystemResetWarning,0814.7,5.01,000.00,018.5,017.1,000.0,027.2,020.0,010.3,0000.0,0007.98,0002.04,0000.70
2024-04-07 10:39:00,SystemResetWarning,0814.7,5.01,000.00,018.4,016.9,000.0,027.2,020.0,010.2,0000.0,0008.08,0002.10,0000.70
2024-04-07 10:40:00,SystemResetWarning,0814.7,5.00,000.00,018.4,016.8,000.0,027.2,020.0,010.1,0000.0,0007.81,0001.98,0000.70
2024-04-07 10:41:00,SystemResetWarning,0815.1,4.99,000.00,018.4,016.8,000.0,027.3,020.0,010.0,0000.0,0007.86,0001.91,0000.69
2024-04-07 10:42:00,SystemResetWarning,0815.4,5.01,000.00,018.5,017.6,000.0,027.3,020.4,009.9,0000.0,0008.19,0001.88,0000.69
2024-04-07 10:43:00,SystemResetWarning,0815.4,4.99,000.00,018.7,018.7,000.0,027.4,021.0,009.8,0000.0,0008.18,0001.88,0000.70
2024-04-07 10:44:00,SystemResetWarning,0814.8,4.98,000.00,018.9,018.9,000.0,027.3,021.0,009.9,0000.0,0008.25,0001.67,0000.68
2024-04-07 10:45:00,SystemResetWarning,0814.8,5.00,000.00,018.9,018.6,000.0,027.3,020.8,010.1,0000.0,0006.43,0001.32,0000.65
2024-04-07 10:46:00,SystemResetWarning,0814.7,5.00,000.00,018.8,018.4,000.0,027.3,020.6,010.2,0000.0,0004.93,0001.22,0000.65
2024-04-07 10:47:00,SystemResetWarning,0814.7,5.00,000.00,018.7,018.0,000.0,027.3,020.3,010.0,0000.0,0005.33,0001.19,0000.64
2024-04-07 10:48:00,SystemResetWarning,0814.8,5.01,000.00,018.6,017.6,000.0,027.2,020.1,010.1,0000.0,0005.70,0001.17,0000.64
2024-04-07 10:49:00,SystemResetWarning,0814.9,5.00,000.00,018.6,017.4,000.0,027.2,020.0,010.2,0000.0,0006.55,0001.16,0000.64
2024-04-07 10:50:00,SystemResetWarning,0815.0,5.00,000.00,018.5,017.2,000.0,027.3,020.0,010.0,0000.0,0006.59,0001.09,0000.63
2024-04-07 10:51:00,SystemResetWarning,0815.1,5.00,000.00,018.4,017.0,000.0,027.3,020.0,009.9,0000.0,0006.49,0001.08,0000.62
2024-04-07 10:52:00,SystemResetWarning,0815.6,4.99,000.00,018.4,016.8,000.0,027.3,020.0,009.9,0000.0,0006.26,0001.12,0000.62
2024-04-07 10:53:00,SystemResetWarning,0815.3,5.00,000.00,018.5,017.4,000.0,027.3,020.3,010.0,0000.0,0006.69,0001.18,0000.62
2024-04-07 10:54:00,SystemResetWarning,0815.4,5.01,000.00,018.7,018.6,000.0,027.4,021.0,009.9,0000.0,0007.29,0001.26,0000.62
2024-04-07 10:55:00,SystemResetWarning,0815.1,5.00,000.00,018.9,018.9,000.0,027.4,021.1,009.7,0000.0,0006.75,0001.27,0000.61
2024-04-07 10:56:00,SystemResetWarning,0814.9,4.99,000.00,018.9,018.7,000.0,027.3,020.9,009.8,0000.0,0006.60,0001.28,0000.61
2024-04-07 10:57:00,SystemResetWarning,0815.5,5.00,000.00,018.9,018.4,000.0,027.3,020.7,009.7,0000.0,0006.75,0001.32,0000.60
2024-04-07 10:58:00,SystemResetWarning,0815.3,5.00,000.00,018.8,018.1,000.0,027.3,020.5,009.8,0000.0,0007.52,0001.43,0000.60
2024-04-07 10:59:00,SystemResetWarning,0815.1,5.00,000.00,018.8,017.9,000.0,027.3,020.3,009.9,0000.0,0007.59,0001.51,0000.61
